Regional Weather Roundup
Issued by NWS

Current Version | Previous Version | Text Only | Print | Product List | Glossary On
Versions: 1 2 3 4 5 6 7 8 9 10 11 12 13 14 15 16 17 18 19 20 21 22 23 24 25 26 27
000
ASUS45 KPSR 011910
RWRAZ

ARIZONA HOURLY REGIONAL WEATHER ROUNDUP
NATIONAL WEATHER SERVICE PHOENIX AZ
1200 PM MST SUN MAY 01 2016

NOTE: FAIR INDICATES FEW OR NO CLOUDS BELOW 12,000 FEET WITH NO
SIGNIFICANT WEATHER AND/OR OBSTRUCTIONS TO VISIBILITY.

AZZ001>003-036-012000-
NORTHWEST ARIZONA

CITY           SKY/WX    TMP DP  RH WIND       PRES   REMARKS
BULLHEAD CITY  MOSUNNY   75  39  27 N14       29.89S
KINGMAN        CLOUDY    63  40  42 N9        29.94F
$$

AZZ004>008-015-016-018-012000-
NORTH CENTRAL ARIZONA

CITY           SKY/WX    TMP DP  RH WIND       PRES   REMARKS
GRAND CANYON   PTSUNNY   46  34  62 NE10      30.03S
PRESCOTT       CLOUDY    52  40  63 SE7       29.98R
FLAGSTAFF      CLOUDY    38  37  97 S6        30.01S WCI  33
PAYSON         CLOUDY    52  39  62 SW9       30.01S
PAGE           LGT RAIN  49  39  68 E9        30.04R
$$

AZZ009>014-017-012000-
NORTHEAST ARIZONA

CITY           SKY/WX    TMP DP  RH WIND       PRES   REMARKS
WINSLOW        LGT RAIN  49  41  74 W15       29.99S
SAINT JOHNS    RAIN      46  38  73 SW16G23   29.98R
WINDOW ROCK    PTSUNNY   49  34  56 SE15G24   30.01S
SHOW LOW       PTSUNNY   45  36  70 SW16      30.01F
$$

AZZ023-012000-
GREATER PHOENIX AREA

CITY           SKY/WX    TMP DP  RH WIND       PRES   REMARKS
PHOENIX        PTSUNNY   71  45  39 S6        29.87S
BUCKEYE        SUNNY     72  45  37 CALM      29.89F
GLENDALE       MOSUNNY   73  43  33 E7        29.89F
LUKE AFB       SUNNY     73  42  33 VRB5      29.87S
DEER VALLEY    MOSUNNY   70  41  34 VRB3      29.88S
SCOTTSDALE     MOSUNNY   72  41  32 S9G16     29.89F
MESA-FALCON    MOSUNNY  N/A N/A N/A SE12      29.86F
MESA-GATEWAY   PTSUNNY   70  45  40 SE7       29.90F
CHANDLER       MOSUNNY   72  46  40 E14       29.88F
$$

AZZ027-028-012000-
SOUTHWEST MARICOPA COUNTY AND PINAL COUNTY

CITY           SKY/WX    TMP DP  RH WIND       PRES   REMARKS
CASA GRANDE    SUNNY     70  45  40 N5        29.91S
GILA BEND      FAIR      73  45  37 VRB3      29.86F
$$

AZZ503-504-507>509-012000-
SOUTHEAST ARIZONA

CITY           SKY/WX    TMP DP  RH WIND       PRES   REMARKS
TUCSON         PTSUNNY   69  34  27 CALM      29.92F
DAVIS-MONTHAN  PTSUNNY   67  35  30 W3        29.90F
RYAN FIELD     PTSUNNY   68  37  32 NW9       29.92S
NOGALES        MOSUNNY   69  31  24 S10G17    29.93F
SIERRA VISTA   PTSUNNY   65  26  22 W13G18    29.96S
DOUGLAS        PTSUNNY   68  27  21 SE13G21   29.93F
SAFFORD        PTSUNNY   68  37  32 SW15G22   29.89F
$$

AZZ020-021-025-026-031-012000-
SOUTHWEST ARIZONA

CITY           SKY/WX    TMP DP  RH WIND       PRES   REMARKS
YUMA           MOSUNNY   77  44  30 VRB3      29.85F
$$

CAZ031-033-041-043-047-048-061-012000-
SOUTHERN CALIFORNIA

CITY           SKY/WX    TMP DP  RH WIND       PRES   REMARKS
DOWNTOWN L.A.  SUNNY     70  51  51 CALM      29.91F
L.A. AIRPORT   MOSUNNY   66  53  63 W10       29.93S
SAN DIEGO      PTSUNNY   66  49  54 S8        29.95F
BURBANK        SUNNY     67  49  52 VRB6      29.91F
ONTARIO        MOSUNNY   69  47  45 VRB5      29.91F
RIVERSIDE      SUNNY     68  46  45 VRB6      29.91F
PALM SPRINGS   SUNNY     82  41  23 S7        29.84F
EL CENTRO NAS  SUNNY    N/A N/A N/A VRB7      29.86S
IMPERIAL       SUNNY     82  41  23 NE8       29.84S
BLYTHE         SUNNY     77  43  29 VRB7G17   29.87S
NEEDLES        MOSUNNY   78  42  27 MISG      29.87S
$$

NVZ020-UTZ003-012000-
SOUTHERN NEVADA-UTAH

CITY           SKY/WX    TMP DP  RH WIND       PRES   REMARKS
LAS VEGAS      MOSUNNY   71  39  31 E10       29.88F
SALT LAKE CITY PTSUNNY   61  23  23 NE18G25   30.05F
$$

NMZ009-TXZ055-012000-
NEW MEXICO-WEST TEXAS

CITY           SKY/WX    TMP DP  RH WIND       PRES   REMARKS
ALBUQUERQUE    CLOUDY    49  29  46 E35G46    30.08F
EL PASO        MOSUNNY   65  35  33 E16G28    30.00F
$$


........................KEY........................
SKY/WX - SKY CONDITION/WEATHER
TMP    - TEMPERATURE IN FAHRENHEIT
DP     - DEW POINT IN FAHRENHEIT
RH     - RELATIVE HUMIDITY IN PERCENT
WIND   - DIRECTION AND SPEED IN MILES PER HOUR (MPH)
VRB    - VARIABLE WIND DIRECTION
PRES   - MEAN SEA LEVEL PRESSURE IN INCHES OF MERCURY
         F - FALLING PRESSURE   R - RISING PRESSURE
         S - STEADY PRESSURE
VSB    - VISIBILITY IN MILES
HX     - HEAT INDEX IN FAHRENHEIT
WCI    - WIND CHILL INDEX IN FAHRENHEIT
TC     - TEMPERATURE IN CELSIUS WHICH IS ALSO KNOWN AS
         TEMPERATURE IN CENTIGRADE
AFB    - AIR FORCE BASE
         LUKE AFB IS LUKE AIR FORCE BASE
         DAVIS-MONTHAN IS DAVIS-MONTHAN AIR FORCE BASE
NAS    - NAVAL AIR STATION
         EL CENTRO NAS IS EL CENTRO NAVAL AIR STATION
N/A    - NOT AVAILABLE





USA.gov is the U.S. government's official web portal to all federal, state and local government web resources and services.